Location: Radford
(37.1320°N, 80.5770°W)
Time: 19:06:02
(UTC-04:00)

Daily predictions for brighter satellites

Satellite Brightness Start Highest point End
(mag) Time Altitude Azimuth Time Altitude Azimuth Time Altitude Azimuth
Cosmos 921 Rocket 3.8 20:59:34 10° SSW 21:03:44 57° WNW 21:08:02 10° N
USA 234 4.5 21:02:43 10° E 21:06:47 17° ESE 21:10:50 10° SSE
Cosmos 1943 3.5 21:02:17 10° NNW 21:07:55 73° WSW 21:13:30 10° SSE
PSLV R/B 4.4 21:06:00 10° WNW 21:09:17 42° N 21:12:38 10° ENE
Meteor 2-3 Rocket 3.7 21:05:59 10° S 21:11:34 67° E 21:17:08 10° NNE
Meteor 1-26 Rocket 4.4 21:07:37 10° N 21:13:30 85° E 21:19:24 10° S
Abrixas rocket 3.0 21:10:15 10° NW 21:13:32 44° NNE 21:16:49 10° ESE
CZ-2D R/B 3.8 21:10:19 10° S 21:14:05 59° W 21:17:51 10° NNW
Okean 1-7 3.0 21:10:08 10° N 21:14:26 81° E 21:18:46 10° S
CZ-4 DEB 2.8 21:12:38 10° SSE 21:15:45 61° ENE 21:18:53 10° N
Cosmos 1844 Rocket 3.6 21:12:33 10° SSE 21:17:07 26° ESE 21:21:43 10° NE
Cosmos 2056 Rocket 4.0 21:12:41 10° SSE 21:17:24 36° ESE 21:22:05 10° NE
Cosmos 1371 Rocket 4.2 21:14:07 10° S 21:19:17 54° ESE 21:24:27 10° NNE
Cosmos 1340 Rocket 2.7 21:17:48 10° S 21:21:45 74° E 21:25:46 10° NNE
Cosmos 1461 3.5 21:19:51 10° SW 21:24:32 72° WNW 21:29:07 10° NNE
Cosmos 1939 Rocket 3.4 21:21:36 10° SE 21:25:11 38° ENE 21:28:50 10° N
Atlas Centaur 2 2.2 21:24:06 10° SW 21:27:03 24° S 21:29:21 14° ESE
Cosmos 1782 4.0 21:26:56 10° NNE 21:30:21 26° ENE 21:32:53 15° SE
Cosmos 2263 Rocket 3.4 21:26:16 10° SW 21:31:42 46° WNW 21:37:08 10° N
CENTAUR R/B 3.2 21:28:26 10° NNW 21:36:19 67° NE 21:43:29 15° SE
SL-8 R/B 3.7 21:35:47 10° SW 21:40:37 89° SE 21:45:26 10° NE
SL-27 R/B 3.9 21:37:50 10° N 21:40:55 25° ENE 21:42:35 18° ESE
Cosmos 1408 4.4 21:40:57 15° E 21:41:27 15° E 21:43:39 10° NE
YAOGAN 6 4.2 21:40:07 16° E 21:41:29 19° ENE 21:44:03 10° NNE
NOSS 2-2 (D) 3.4 21:38:35 10° SSW 21:42:37 74° ESE 21:47:10 10° NE
Coronas F rocket 1.2 21:41:23 10° S 21:44:01 82° W 21:46:40 10° N
Cosmos 2184 Rocket 3.9 21:39:37 10° S 21:45:46 82° E 21:51:58 10° N
COS B Rocket 4.2 21:45:19 10° NNE 21:49:07 32° E 21:50:52 22° SE
deb Chang Zheng 4 3.5 21:44:45 10° NNE 21:49:11 80° ESE 21:53:36 10° S
Cosmos 1606 3.8 21:49:33 10° NNE 21:53:00 28° ENE 21:54:20 23° ESE
Cosmos 1908 Rocket 4.0 21:53:55 20° SSE 21:56:30 40° E 22:00:38 10° NNE
Cosmos 1624 Rocket 4.1 21:51:34 10° SSW 21:56:49 83° WNW 22:02:09 10° NNE
NOSS 2-2 (C) 3.6 21:53:16 10° SW 21:57:18 76° WNW 22:01:54 10° NNE
H-2A R/B 4.0 21:56:04 13° E 21:58:16 16° ENE 22:01:23 10° NNE
Cosmos 1892 3.4 21:54:35 10° SSW 21:58:19 54° W 22:02:06 10° N
Envisat 2.9 21:53:56 14° SSE 21:58:20 85° ENE 22:03:27 10° NNW
USA 245 4.3 21:58:29 19° ENE 21:58:54 20° ENE 22:01:24 10° NNE
SL-08 ROCKET BODY 4.4 21:52:55 10° S 21:59:00 86° W 22:05:01 10° N
Meteor 2-10 Rocket 3.9 21:53:18 10° NNW 21:59:08 79° W 22:04:46 10° S
Cosmos 1733 Rocket 3.3 21:58:10 10° SSW 22:02:34 70° W 22:06:58 10° N
Cosmos 1378 Rocket 4.3 22:02:49 10° NNE 22:06:47 35° ENE 22:08:06 28° ESE
Meteor 2-6 Rocket 4.3 22:01:25 10° N 22:07:24 76° E 22:11:36 20° SSE
CZ-4 SHROUD 3.4 22:08:15 42° ESE 22:08:53 51° ENE 22:11:54 10° N
SPOT 1/Viking Rocket 4.0 22:10:27 27° SE 22:12:53 45° ENE 22:17:50 10° N
ERBS 2.5 22:12:21 10° NW 22:15:47 61° NE 22:16:36 45° ESE
Cosmos 407 Rocket 3.6 22:14:14 10° NNW 22:19:28 65° ENE 22:21:52 32° SE
Cosmos 1452 Rocket 3.5 22:16:33 16° S 22:20:37 61° ESE 22:25:49 10° NNE
Cosmos 1238 Rocket 2.9 22:19:06 10° N 22:22:00 39° ENE 22:22:00 39° ENE
SPOT 5 3.1 22:19:22 22° S 22:22:44 79° WSW 22:28:06 10° NNW
H-2A R/B 3.1 22:24:06 16° SSW 22:27:13 42° W 22:31:19 10° NNW
COSMOS 2406 3.4 22:22:01 10° NNW 22:27:43 67° WSW 22:30:59 26° S
PSLV R/B 3.3 22:29:27 57° SW 22:29:44 61° W 22:32:39 10° NNW
Cosmos 1190 Rocket 4.0 22:24:52 10° NNW 22:30:04 80° WSW 22:32:30 32° S
Cosmos 2084 4.2 22:32:18 31° ENE 22:32:18 31° ENE 22:34:38 10° NE
MetOp-B 4.1 22:28:34 27° S 22:31:33 81° WSW 22:36:55 10° NNW
Cosmos 1862 3.3 22:33:23 35° SSW 22:35:03 82° W 22:39:08 10° N
Cosmos 1140 Rocket 4.3 22:31:53 10° N 22:36:32 33° ENE 22:37:36 30° E
Nadezhda 3 Rocket 4.0 22:31:49 10° N 22:38:13 88° W 22:41:46 28° S
Terra 3.0 22:37:58 27° E 22:38:33 27° ENE 22:42:33 10° NNE
ARGOS 3.1 22:38:33 40° SSE 22:40:31 73° ENE 22:45:52 10° N
Okean 2 Rocket 3.0 22:42:45 57° SE 22:43:26 67° E 22:47:50 10° NNE
ATLAS 5 CENTAUR R/B 2.7 22:38:00 10° NW 22:44:01 60° WSW 22:46:55 32° S
Cosmos 2278 Rocket 2.1 22:43:31 25° SSW 22:46:58 76° ESE 22:52:39 10° NNE
PSLV R/B 3.5 22:43:34 10° WNW 22:46:43 71° WNW 22:46:43 71° WNW
Cosmos 1844 4.0 22:43:42 10° SSW 22:49:24 67° WNW 22:55:11 10° NNE
USA 234 3.1 22:43:46 10° NE 22:50:20 81° SE 22:56:51 10° SW
Abrixas rocket 4.3 22:47:47 10° W 22:49:51 20° WSW 22:49:51 20° WSW
Cosmos 2341 Rocket 4.1 22:46:29 20° SSW 22:51:04 77° W 22:57:23 10° N
CZ-4B R/B 3.6 22:47:14 10° N 22:52:12 70° WNW 22:54:53 26° SSW
CZ-4C R/B 3.8 22:54:26 47° NE 22:54:26 47° NE 22:57:50 10° N
Cosmos 1825 3.0 22:54:31 38° SW 22:55:30 49° W 22:59:14 10° N
Cosmos 1833 Rocket 4.3 22:51:55 10° N 22:56:01 20° NE 22:57:19 19° ENE
Cosmos 676 Rocket 4.0 22:54:35 10° NNW 22:59:47 72° WSW 23:01:02 51° S
Cosmos 1959 Rocket 4.5 22:58:48 48° SE 23:00:13 61° E 23:06:14 10° NNE
Cosmos 1844 Rocket 4.0 22:55:30 10° SW 23:00:45 39° WNW 23:06:02 10° N
Cosmos 1184 Rocket 3.9 23:04:00 44° WNW 23:04:00 44° WNW 23:06:56 10° N
Timation 2 Rocket 4.2 22:58:18 10° NNW 23:04:07 50° ENE 23:05:20 44° E
Meteor 1-27 Rocket 4.4 22:58:51 10° NNW 23:04:09 47° W 23:06:42 28° SSW
Cosmos 1954 Rocket 3.9 23:02:18 10° NNW 23:07:30 80° WSW 23:08:21 63° S
Cosmos 1782 Rocket 4.3 23:07:23 35° SW 23:08:47 49° W 23:13:08 10° N
Cosmos 2082 Rocket 3.2 23:03:43 10° N 23:08:47 32° ENE 23:09:37 30° ENE
Cosmos 1741 Rocket 4.2 23:09:31 10° N 23:14:40 54° ENE 23:14:51 54° ENE
COSMOS 2487 3.5 23:11:03 10° NNW 23:13:44 47° NNW 23:13:44 47° NNW
Atlas Centaur 2 3.9 23:12:00 10° WSW 23:12:00 10° WSW 23:12:00 10° WSW
Cosmos 2297 3.6 23:16:56 67° SE 23:17:13 68° ESE 23:22:56 10° NNE
IGS 5A 4.0 23:17:59 51° NNE 23:17:59 51° NNE 23:21:23 10° N
SL-8 Rocket 4.0 23:17:09 42° SSW 23:19:27 78° W 23:25:44 10° N
DNEPR-1 R/B 4.2 23:15:26 10° NNW 23:20:36 50° NE 23:20:37 50° NE
APEX 4.3 23:22:48 43° NNE 23:22:48 43° NNE 23:26:03 10° NNE
SL-08 RB Rocket 4.5 23:24:57 42° WSW 23:25:22 43° W 23:29:45 10° NNW
CENTAUR R/B 4.5 23:20:05 10° NW 23:26:38 28° WSW 23:30:41 19° SSW
CARTOSAT-1 3.8 23:27:44 65° NNW 23:27:44 65° NNW 23:31:28 10° NNW
Cosmos 1975 Rocket 4.0 23:23:11 10° NNW 23:27:12 39° W 23:27:24 38° W
USA 229 DEB 4.5 23:27:05 10° NNW 23:33:50 44° NE 23:35:48 36° E
USA 229 4.5 23:27:11 10° NNW 23:33:56 43° NE 23:35:55 36° E
H-2A R/B 2.2 23:36:42 63° SW 23:37:06 65° WSW 23:42:28 10° NNW
Meteor 2-19 Rocket 4.3 23:37:44 74° SE 23:38:05 76° E 23:44:13 10° N
Cosmos 1242 Rocket 4.4 23:35:07 10° NNW 23:37:28 29° WNW 23:37:28 29° WNW
Cosmos 1536 Rocket 4.2 23:35:33 10° N 23:39:02 53° N 23:39:02 53° N
Cosmos 2151 Rocket 4.4 23:49:00 49° NW 23:49:00 49° NW 23:52:56 10° N
Meteor 2-8 Rocket 4.3 23:45:23 10° N 23:51:33 81° W 23:51:55 77° SW
Meteor 1-20 Rocket 4.2 23:54:18 81° N 23:54:18 81° N 23:59:35 10° N
